Colorado Springs, CO

2:34 AM MDT on March 29, 2017 (GMT -0600)
City Of Colorado Springs Municipal

Weather History for KCOS - October, 2012

Change the Weather History Date:

Sunday, October 14, 2012

  Actual Average Record
Temperature  
Mean Temperature 52 °F 50 °F  
Max Temperature 64 °F 64 °F 84 °F (1962)
Min Temperature 40 °F 36 °F 9 °F (1969)
Degree Days  
Heating Degree Days 13 15  
Month to date heating degree days 215 179  
Since 1 July heating degree days 331 369  
Cooling Degree Days 0 0  
Month to date cooling degree days 0 0  
Year to date cooling degree days 873 454  
Growing Degree Days 3 (Base 50)    
Moisture  
Dew Point 33 °F    
Average Humidity 53    
Maximum Humidity 76    
Minimum Humidity 30    
Precipitation  
Precipitation 0.00 in 0.03 in 1.63 in (1945)
Month to date precipitation 0.03 0.39  
Year to date precipitation 7.72 15.37  
Snow  
Snow 0.00 in 0.10 in 3.50 in (1984)
Month to date snowfall T 0.9  
Since 1 July snowfall T 1.1  
Since 1 September snowfall T 1.1  
Snow Depth 0.00 in    
Sea Level Pressure  
Sea Level Pressure 30.19 in    
Wind  
Wind Speed 8 mph (East)    
Max Wind Speed 16 mph    
Max Gust Speed 20 mph    
Visibility 10 miles    
Events      
T = Trace of Precipitation, MM = Missing Value Source: NWS Daily Summary

Daily Weather History Graph

Daily Weather History Graph

Search for Another Location

Airport or City:

Trip Planner

Search our weather history database for the weather conditions in past years. The results will help you decide how hot, cold, wet, or windy it might be!

Date:

Astronomy

Oct. 14, 2012 Rise Set
Actual Time 7:07 AM MDT 6:21 PM MDT
Civil Twilight 6:40 AM MDT 6:47 PM MDT
Nautical Twilight 6:09 AM MDT 7:18 PM MDT
Astronomical Twilight 5:39 AM MDT 7:49 PM MDT
Moon 6:09 AM MDT (10/14) 5:42 PM MDT (10/14)
Length of Visible Light 12h 06m
Length of Day
11h 13m
Waning Crescent, 1% of the Moon is Illuminated
Oct 14
Waning Crescent
Oct 15
New
Oct 21
First Quarter
Oct 29
Full
Nov 6
Last Quarter

Hourly Weather History & Observations

Time (MDT) Temp. Windchill Dew Point Humidity Pressure Visibility Wind Dir Wind Speed Gust Speed Precip Events Conditions
12:54 AM 48.0 °F - 34.0 °F 58% 30.08 in 10.0 mi North 10.4 mph - N/A   Partly Cloudy
1:54 AM 48.0 °F - 35.1 °F 61% 30.12 in 10.0 mi North 11.5 mph - N/A   Scattered Clouds
2:54 AM 44.1 °F 42.5 °F 35.1 °F 71% 30.16 in 10.0 mi NNE 3.5 mph - N/A   Partly Cloudy
3:54 AM 43.0 °F 36.0 °F 36.0 °F 76% 30.17 in 10.0 mi North 13.8 mph - N/A   Partly Cloudy
4:54 AM 44.1 °F 39.0 °F 36.0 °F 73% 30.16 in 10.0 mi NNW 9.2 mph - N/A   Clear
5:54 AM 43.0 °F 36.0 °F 36.0 °F 76% 30.20 in 10.0 mi North 13.8 mph - N/A   Partly Cloudy
6:54 AM 46.0 °F 40.6 °F 37.0 °F 71% 30.22 in 10.0 mi North 11.5 mph - N/A   Partly Cloudy
7:54 AM 46.0 °F 41.9 °F 36.0 °F 68% 30.27 in 10.0 mi West 8.1 mph - N/A   Partly Cloudy
8:54 AM 52.0 °F - 36.0 °F 54% 30.26 in 10.0 mi Calm Calm - N/A   Partly Cloudy
9:54 AM 54.0 °F - 33.1 °F 45% 30.29 in 10.0 mi Variable 5.8 mph - N/A   Partly Cloudy
10:54 AM 57.9 °F - 33.1 °F 39% 30.25 in 10.0 mi South 10.4 mph - N/A   Partly Cloudy
11:54 AM 57.9 °F - 34.0 °F 41% 30.20 in 10.0 mi South 13.8 mph 19.6 mph N/A   Partly Cloudy
12:54 PM 61.0 °F - 34.0 °F 36% 30.17 in 10.0 mi South 15.0 mph 18.4 mph N/A   Partly Cloudy
1:54 PM 62.6 °F - 33.8 °F 34% 30.27 in 10.0 mi South 13.8 mph - N/A   Partly Cloudy
2:54 PM 63.0 °F - 33.1 °F 33% 30.14 in 10.0 mi Variable 6.9 mph - N/A   Partly Cloudy
3:54 PM 63.0 °F - 30.9 °F 30% 30.14 in 10.0 mi SSE 9.2 mph - N/A   Clear
4:54 PM 63.0 °F - 30.9 °F 30% 30.12 in 10.0 mi SE 11.5 mph - N/A   Clear
5:54 PM 61.0 °F - 30.9 °F 32% 30.14 in 10.0 mi SE 9.2 mph - N/A   Clear
6:54 PM 55.9 °F - 30.9 °F 39% 30.17 in 10.0 mi ESE 5.8 mph - N/A   Clear
7:54 PM 52.0 °F - 30.0 °F 43% 30.20 in 10.0 mi Calm Calm - N/A   Clear
8:54 PM 50.0 °F - 30.9 °F 48% 30.19 in 10.0 mi Calm Calm - N/A   Clear
9:54 PM 45.0 °F - 28.9 °F 53% 30.19 in 10.0 mi Calm Calm - N/A   Clear
10:54 PM 43.0 °F - 28.9 °F 58% 30.19 in 10.0 mi Calm Calm - N/A   Clear
11:54 PM 45.0 °F 43.5 °F 30.0 °F 56% 30.16 in 10.0 mi ENE 3.5 mph - N/A   Clear